Date,TemperatureHighF,TemperatureAvgF,TemperatureLowF,DewpointHighF,DewpointAvgF,DewpointLowF,HumidityHigh,HumidityAvg,HumidityLow,PressureMaxIn,PressureMinIn,WindSpeedMaxMPH,WindSpeedAvgMPH,GustSpeedMaxMPH,PrecipitationSumIn
2013-8-1,96,87,81,77,75,73,81,69,53,29.84,29.73,11,3,17,0.00
2013-8-2,95,84,76,78,75,72,94,75,50,29.85,29.70,9,2,18,0.37
2013-8-3,93,80,72,80,76,69,95,86,63,29.93,29.81,17,1,30,0.54
2013-8-4,98,85,77,81,76,74,93,76,53,29.91,29.77,11,1,18,0.01
2013-8-5,96,85,79,82,77,72,89,78,59,29.83,29.73,11,2,17,0.07
2013-8-6,97,86,77,80,77,73,93,76,56,29.78,29.67,8,1,14,0.04
2013-8-7,95,86,78,80,76,73,92,74,54,29.77,29.69,10,2,16,0.00
2013-8-8,97,88,82,80,76,72,84,69,52,29.81,29.71,9,3,17,0.00
2013-8-9,93,85,80,79,75,71,83,73,60,29.85,29.73,8,2,18,0.17
2013-8-10,96,88,81,80,77,75,85,71,53,29.91,29.82,9,3,15,0.00
2013-8-11,96,88,82,80,77,73,84,71,56,29.92,29.85,10,3,16,0.00
2013-8-12,95,86,78,79,76,72,85,72,57,29.90,29.80,9,3,16,0.01
2013-8-13,97,88,81,79,76,73,85,69,48,29.83,29.74,7,2,17,0.00
2013-8-14,97,88,80,78,76,74,85,68,49,29.82,29.71,8,2,14,0.00
2013-8-15,91,83,76,80,77,72,93,82,68,29.85,29.75,8,2,16,0.17
2013-8-16,97,88,79,81,78,76,93,74,53,29.84,29.76,8,2,13,0.00
2013-8-17,96,89,82,81,79,75,86,73,59,29.87,29.78,8,2,17,0.00
2013-8-18,96,88,82,80,78,74,84,72,59,29.86,29.78,10,3,17,0.00
2013-8-19,97,88,81,81,78,75,85,73,55,29.86,29.75,8,3,17,0.02
2013-8-20,96,87,81,80,77,73,87,71,55,29.85,29.77,10,3,19,0.04
2013-8-21,95,86,79,84,78,75,91,79,60,29.86,29.78,12,3,21,0.15
2013-8-22,96,86,74,82,78,71,96,77,57,29.88,29.74,11,2,17,0.61
2013-8-23,97,87,80,82,77,74,87,73,54,29.80,29.72,8,2,15,0.00
2013-8-24,97,86,75,80,76,71,93,73,50,29.90,29.75,8,2,14,0.53
2013-8-25,91,83,78,79,76,73,93,81,61,29.94,29.81,8,2,13,0.08
2013-8-26,93,84,78,80,75,71,88,76,56,29.91,29.80,9,2,15,0.08
2013-8-27,92,82,76,78,74,71,91,77,56,29.83,29.75,10,2,14,0.00
2013-8-28,95,84,76,79,75,72,93,77,55,29.83,29.73,8,1,14,0.27
2013-8-29,96,86,76,80,76,72,92,74,53,29.81,29.71,8,2,14,0.00
2013-8-30,97,86,76,78,75,71,91,70,49,29.79,29.68,8,2,16,0.00
2013-8-31,97,82,76,81,76,73,92,81,54,29.77,29.70,8,2,12,0.20